TimeCDT,TemperatureF,Dew PointF,Humidity,Sea Level PressureIn,VisibilityMPH,Wind Direction,Wind SpeedMPH,Gust SpeedMPH,PrecipitationIn,Events,Conditions,WindDirDegrees,DateUTC
12:12 AM,51.8,39.2,62,29.78,10.0,WSW,6.9,-,N/A,,Drizzle,250,2012-10-09 05:12:00
12:31 AM,51.8,42.8,71,29.78,10.0,WSW,4.6,-,N/A,,Drizzle,250,2012-10-09 05:31:00
12:51 AM,50.0,42.8,76,29.78,10.0,WSW,5.8,-,0.01,,Drizzle,240,2012-10-09 05:51:00
1:11 AM,50.0,44.6,82,29.78,10.0,WSW,5.8,-,N/A,,Drizzle,240,2012-10-09 06:11:00
1:31 AM,50.0,44.6,82,29.78,10.0,SW,4.6,-,0.01,,Drizzle,230,2012-10-09 06:31:00
1:52 AM,50.0,44.6,82,29.77,10.0,SSW,4.6,-,0.01,,Light Drizzle,210,2012-10-09 06:52:00
2:11 AM,50.0,44.6,82,29.78,10.0,NNW,4.6,-,N/A,,Overcast,330,2012-10-09 07:11:00
2:52 AM,50.0,44.6,82,29.77,10.0,Calm,Calm,-,N/A,,Overcast,0,2012-10-09 07:52:00
3:11 AM,48.2,44.6,87,29.76,10.0,Calm,Calm,-,N/A,,Overcast,0,2012-10-09 08:11:00
3:31 AM,46.4,44.6,93,29.75,10.0,Calm,Calm,-,N/A,,Overcast,0,2012-10-09 08:31:00
4:12 AM,46.4,44.6,93,29.76,10.0,Calm,Calm,-,N/A,,Scattered Clouds,0,2012-10-09 09:12:00
4:31 AM,46.4,44.6,93,29.76,10.0,Calm,Calm,-,N/A,,Scattered Clouds,0,2012-10-09 09:31:00
4:52 AM,46.4,42.8,87,29.76,10.0,Calm,Calm,-,N/A,,Scattered Clouds,0,2012-10-09 09:52:00
5:12 AM,46.4,44.6,93,29.76,10.0,Calm,Calm,-,N/A,,Overcast,0,2012-10-09 10:12:00
5:31 AM,46.4,44.6,93,29.76,10.0,Calm,Calm,-,N/A,,Overcast,0,2012-10-09 10:31:00
5:52 AM,48.2,44.6,87,29.76,10.0,WSW,3.5,-,N/A,,Overcast,240,2012-10-09 10:52:00
6:12 AM,50.0,44.6,82,29.76,10.0,Calm,Calm,-,N/A,,Overcast,0,2012-10-09 11:12:00
6:31 AM,50.0,44.6,82,29.76,10.0,SW,3.5,-,N/A,,Overcast,230,2012-10-09 11:31:00
6:52 AM,50.0,44.6,82,29.76,10.0,Calm,Calm,-,N/A,Rain,Light Rain,0,2012-10-09 11:52:00
7:11 AM,50.0,44.6,82,29.77,10.0,WSW,3.5,-,N/A,Rain,Light Rain,250,2012-10-09 12:11:00
7:31 AM,48.2,44.6,87,29.77,10.0,WSW,3.5,-,N/A,,Light Drizzle,240,2012-10-09 12:31:00
7:51 AM,48.2,44.6,87,29.77,10.0,Calm,Calm,-,0.01,Rain,Rain,0,2012-10-09 12:51:00
8:11 AM,48.2,44.6,87,29.77,10.0,SW,3.5,-,N/A,,Light Drizzle,230,2012-10-09 13:11:00
8:31 AM,50.0,46.4,87,29.77,10.0,Calm,Calm,-,0.01,,Overcast,0,2012-10-09 13:31:00
8:51 AM,50.0,46.4,87,29.76,10.0,Calm,Calm,-,0.01,,Light Drizzle,0,2012-10-09 13:51:00
9:12 AM,50.0,46.4,87,29.75,10.0,SSW,5.8,-,N/A,,Light Drizzle,210,2012-10-09 14:12:00
9:31 AM,50.0,46.4,87,29.74,10.0,SW,3.5,-,N/A,,Light Drizzle,220,2012-10-09 14:31:00
9:51 AM,51.8,46.4,82,29.75,10.0,WSW,5.8,-,N/A,,Mostly Cloudy,240,2012-10-09 14:51:00
10:12 AM,51.8,46.4,82,29.76,10.0,West,3.5,-,N/A,,Overcast,270,2012-10-09 15:12:00
10:31 AM,51.8,48.2,88,29.76,5.0,WNW,6.9,-,0.02,Rain,Rain,290,2012-10-09 15:31:00
10:51 AM,50.0,44.6,82,29.77,10.0,WNW,15.0,20.7,0.03,,Light Drizzle,300,2012-10-09 15:51:00
11:12 AM,46.4,41.0,81,29.79,10.0,NW,15.0,27.6,N/A,,Drizzle,310,2012-10-09 16:12:00
11:46 AM,46.4,41.0,81,29.82,7.0,WNW,11.5,18.4,0.01,Rain,Light Rain,300,2012-10-09 16:46:00
12:10 PM,44.6,41.0,87,29.82,10.0,WNW,6.9,16.1,N/A,,Overcast,290,2012-10-09 17:10:00
12:35 PM,44.6,39.2,81,29.82,10.0,WNW,9.2,-,N/A,,Overcast,300,2012-10-09 17:35:00
12:50 PM,44.6,39.2,81,29.81,7.0,WNW,9.2,-,N/A,,Overcast,300,2012-10-09 17:50:00
1:03 PM,44.6,39.2,81,29.82,7.0,WNW,8.1,-,N/A,Rain,Light Rain,300,2012-10-09 18:03:00
1:12 PM,42.8,37.4,81,29.82,7.0,WNW,10.4,17.3,N/A,Rain,Rain,300,2012-10-09 18:12:00
1:31 PM,42.8,35.6,76,29.81,10.0,West,4.6,-,N/A,,Mostly Cloudy,260,2012-10-09 18:31:00
1:51 PM,44.6,37.4,76,29.81,10.0,West,4.6,-,N/A,,Scattered Clouds,260,2012-10-09 18:51:00
2:12 PM,44.6,37.4,76,29.81,10.0,West,4.6,-,N/A,,Clear,260,2012-10-09 19:12:00
2:31 PM,44.6,37.4,76,29.81,10.0,West,4.6,-,N/A,,Clear,260,2012-10-09 19:31:00
2:51 PM,46.4,37.4,71,29.80,10.0,WSW,5.8,-,N/A,,Scattered Clouds,240,2012-10-09 19:51:00
3:12 PM,46.4,37.4,71,29.80,10.0,WSW,6.9,-,N/A,,Clear,240,2012-10-09 20:12:00
3:31 PM,46.4,37.4,71,29.80,10.0,West,5.8,-,N/A,,Scattered Clouds,270,2012-10-09 20:31:00
3:51 PM,46.4,37.4,71,29.80,10.0,SW,4.6,-,N/A,,Overcast,220,2012-10-09 20:51:00
4:11 PM,46.4,37.4,71,29.81,10.0,West,4.6,-,N/A,Rain,Light Rain,270,2012-10-09 21:11:00
4:31 PM,46.4,32.0,57,29.82,10.0,WNW,13.8,19.6,N/A,,Overcast,290,2012-10-09 21:31:00
4:52 PM,46.4,28.4,50,29.82,10.0,WNW,13.8,21.9,N/A,,Overcast,300,2012-10-09 21:52:00
5:11 PM,46.4,26.6,46,29.83,10.0,WNW,13.8,20.7,N/A,,Overcast,290,2012-10-09 22:11:00
5:31 PM,46.4,28.4,50,29.83,10.0,WNW,12.7,20.7,N/A,,Overcast,300,2012-10-09 22:31:00
5:52 PM,46.4,28.4,50,29.84,10.0,WNW,11.5,18.4,N/A,,Scattered Clouds,290,2012-10-09 22:52:00
6:11 PM,46.4,28.4,50,29.85,10.0,WNW,11.5,16.1,N/A,,Mostly Cloudy,290,2012-10-09 23:11:00
6:31 PM,46.4,30.2,53,29.85,10.0,WNW,10.4,18.4,N/A,,Mostly Cloudy,290,2012-10-09 23:31:00
6:52 PM,46.4,30.2,53,29.86,10.0,WNW,10.4,-,N/A,,Mostly Cloudy,290,2012-10-09 23:52:00
7:11 PM,46.4,30.2,53,29.86,10.0,WNW,5.8,-,N/A,,Overcast,290,2012-10-10 00:11:00
7:31 PM,46.4,30.2,53,29.87,10.0,WNW,8.1,-,N/A,,Overcast,290,2012-10-10 00:31:00
7:52 PM,46.4,32.0,57,29.88,10.0,WNW,10.4,19.6,N/A,,Overcast,300,2012-10-10 00:52:00
8:11 PM,44.6,30.2,57,29.88,10.0,WNW,11.5,17.3,N/A,,Overcast,290,2012-10-10 01:11:00
8:31 PM,42.8,30.2,61,29.89,10.0,WNW,12.7,-,N/A,,Scattered Clouds,300,2012-10-10 01:31:00
8:52 PM,41.0,30.2,65,29.90,10.0,WNW,10.4,-,N/A,,Scattered Clouds,290,2012-10-10 01:52:00
9:11 PM,41.0,30.2,65,29.92,10.0,WNW,12.7,18.4,N/A,,Scattered Clouds,300,2012-10-10 02:11:00
9:32 PM,41.0,28.4,61,29.92,10.0,WNW,10.4,-,N/A,,Overcast,300,2012-10-10 02:32:00
9:52 PM,41.0,28.4,61,29.93,10.0,WNW,16.1,19.6,N/A,,Overcast,300,2012-10-10 02:52:00
10:11 PM,41.0,28.4,61,29.93,10.0,WNW,13.8,-,N/A,,Scattered Clouds,300,2012-10-10 03:11:00
10:32 PM,39.2,26.6,61,29.94,10.0,WNW,11.5,-,N/A,,Clear,300,2012-10-10 03:32:00
10:52 PM,41.0,26.6,57,29.94,10.0,WNW,8.1,-,N/A,,Mostly Cloudy,290,2012-10-10 03:52:00
11:11 PM,41.0,26.6,57,29.94,10.0,WNW,9.2,-,N/A,,Overcast,290,2012-10-10 04:11:00
11:32 PM,41.0,26.6,57,29.94,10.0,WNW,10.4,16.1,N/A,,Overcast,300,2012-10-10 04:32:00
11:52 PM,41.0,24.8,53,29.94,10.0,WNW,9.2,-,N/A,,Overcast,290,2012-10-10 04:52:00